AXB631 VOMM-VOHS

Flight info

Callsign AXB631
Flight time 0h 51m
Altitude 36000
Route KAMGU2A KAMGU W20 LEDOB LEDOB6
Aircraft B738/M-SDE2E3FGHIRWXY/LB1

Departure

Time 2026-04-23 11:43
Airport Chennai International Airport (VOMM)

Arrival

Time 2026-04-23 12:35
Airport Rajiv Gandhi International Airport (VOHS)
Time Latitude Longitude Altitude Speed Heading
2026-04-23 11:41 12.98351 80.15684 60 ft 18 kts 285°
2026-04-23 11:41 12.98384 80.15566 60 ft 15 kts 283°
2026-04-23 11:42 12.98410 80.15471 60 ft 12 kts 286°
2026-04-23 11:42 12.98462 80.15442 60 ft 7 kts 20°
2026-04-23 11:42 12.98487 80.15476 60 ft 5 kts 65°
2026-04-23 11:42 12.98498 80.15504 60 ft 3 kts 69°
2026-04-23 11:43 12.98525 80.15576 60 ft 33 kts 70°
2026-04-23 11:43 12.98702 80.16053 60 ft 108 kts 69°
2026-04-23 11:43 12.99052 80.16979 67 ft 166 kts 70°
2026-04-23 11:43 12.99500 80.18113 669 ft 170 kts 72°
2026-04-23 11:44 12.99925 80.19232 1330 ft 176 kts 70°
2026-04-23 11:44 13.00724 80.20279 1672 ft 205 kts 34°
2026-04-23 11:44 13.02188 80.20582 2004 ft 231 kts 353°
2026-04-23 11:44 13.03757 80.20091 2467 ft 246 kts 340°
2026-04-23 11:45 13.05378 80.19441 3005 ft 255 kts 340°
2026-04-23 11:45 13.07045 80.18783 3652 ft 260 kts 341°
2026-04-23 11:45 13.08654 80.18143 4231 ft 270 kts 341°
2026-04-23 11:45 13.10416 80.17440 4838 ft 279 kts 341°
2026-04-23 11:46 13.12242 80.16711 5589 ft 283 kts 341°
2026-04-23 11:46 13.14082 80.15974 6376 ft 286 kts 341°
2026-04-23 11:46 13.15907 80.15245 7173 ft 288 kts 341°
2026-04-23 11:46 13.17769 80.14500 7991 ft 289 kts 341°
2026-04-23 11:47 13.19647 80.13749 8812 ft 291 kts 341°
2026-04-23 11:47 13.21528 80.12996 9630 ft 293 kts 341°
2026-04-23 11:47 13.23427 80.12237 10229 ft 303 kts 340°
2026-04-23 11:47 13.25492 80.11412 10360 ft 329 kts 340°
2026-04-23 11:48 13.27633 80.10555 11033 ft 335 kts 340°
2026-04-23 11:48 13.29827 80.09675 11631 ft 343 kts 340°
2026-04-23 11:48 13.32037 80.08789 12417 ft 345 kts 340°
2026-04-23 11:48 13.34300 80.07883 13111 ft 349 kts 340°
2026-04-23 11:49 13.36553 80.06979 13826 ft 353 kts 340°
2026-04-23 11:49 13.38839 80.06063 14523 ft 357 kts 340°
2026-04-23 11:49 13.41152 80.05136 15206 ft 360 kts 340°
2026-04-23 11:49 13.43502 80.04194 15868 ft 364 kts 340°
2026-04-23 11:50 13.45858 80.03249 16511 ft 368 kts 340°
2026-04-23 11:50 13.48245 80.02292 17141 ft 372 kts 340°
2026-04-23 11:50 13.50657 80.01324 17745 ft 375 kts 340°
2026-04-23 11:50 13.53099 80.00345 18342 ft 379 kts 340°
2026-04-23 11:51 13.55556 79.99358 18917 ft 382 kts 340°
2026-04-23 11:51 13.58042 79.98360 19484 ft 385 kts 340°
2026-04-23 11:51 13.60518 79.97366 20025 ft 389 kts 340°
2026-04-23 11:51 13.63041 79.96353 20555 ft 392 kts 341°
2026-04-23 11:52 13.65599 79.95326 21072 ft 395 kts 341°
2026-04-23 11:52 13.68134 79.94307 21569 ft 399 kts 341°
2026-04-23 11:52 13.70747 79.93257 22062 ft 402 kts 341°
2026-04-23 11:52 13.73330 79.92219 22538 ft 405 kts 341°
2026-04-23 11:53 13.75967 79.91158 23017 ft 408 kts 341°
2026-04-23 11:53 13.78603 79.90099 23453 ft 411 kts 341°
2026-04-23 11:53 13.81277 79.89023 23905 ft 413 kts 341°
2026-04-23 11:53 13.83967 79.87940 24338 ft 416 kts 341°
2026-04-23 11:54 13.86645 79.86862 24761 ft 419 kts 341°
2026-04-23 11:54 13.89376 79.85763 25182 ft 422 kts 341°
2026-04-23 11:54 13.92103 79.84664 25582 ft 424 kts 341°
2026-04-23 11:54 13.94850 79.83558 25957 ft 427 kts 341°
2026-04-23 11:55 13.97629 79.82439 26388 ft 429 kts 341°
2026-04-23 11:55 14.00386 79.81327 26755 ft 431 kts 341°
2026-04-23 11:55 14.03193 79.80196 27123 ft 434 kts 341°
2026-04-23 11:55 14.05966 79.79077 27479 ft 436 kts 341°
2026-04-23 11:56 14.07860 79.78313 27708 ft 438 kts 341°
2026-04-23 11:56 14.11645 79.76787 28165 ft 441 kts 341°
2026-04-23 11:56 14.14498 79.75635 28509 ft 443 kts 341°
2026-04-23 11:56 14.17381 79.74472 28813 ft 446 kts 341°
2026-04-23 11:57 14.20266 79.73308 29130 ft 448 kts 341°
2026-04-23 11:57 14.23169 79.72135 29453 ft 450 kts 341°
2026-04-23 11:57 14.26048 79.70972 29740 ft 452 kts 341°
2026-04-23 11:57 14.28973 79.69790 30082 ft 453 kts 341°
2026-04-23 11:58 14.31906 79.68603 30606 ft 449 kts 341°
2026-04-23 11:58 14.34787 79.67438 30980 ft 449 kts 341°
2026-04-23 11:58 14.37690 79.66264 31380 ft 448 kts 341°
2026-04-23 11:58 14.40566 79.65101 31764 ft 447 kts 341°
2026-04-23 11:59 14.43473 79.63924 32120 ft 446 kts 341°
2026-04-23 11:59 14.46326 79.62769 32490 ft 445 kts 341°
2026-04-23 11:59 14.49194 79.61607 32862 ft 444 kts 341°
2026-04-23 11:59 14.52066 79.60439 33226 ft 443 kts 341°
2026-04-23 12:00 14.54923 79.59268 33582 ft 442 kts 341°
2026-04-23 12:00 14.57744 79.58109 33900 ft 442 kts 341°
2026-04-23 12:00 14.60602 79.56940 34227 ft 442 kts 341°
2026-04-23 12:00 14.63452 79.55781 34525 ft 442 kts 341°
2026-04-23 12:01 14.66293 79.54624 34796 ft 442 kts 341°
2026-04-23 12:01 14.69167 79.53457 35148 ft 440 kts 341°
2026-04-23 12:01 14.71989 79.52311 35515 ft 438 kts 341°
2026-04-23 12:01 14.74826 79.51157 35718 ft 440 kts 341°
2026-04-23 12:02 14.77680 79.50002 35723 ft 442 kts 341°
2026-04-23 12:02 14.83328 79.47715 35723 ft 438 kts 341°
2026-04-23 12:03 14.88986 79.45438 35723 ft 436 kts 342°
2026-04-23 12:03 14.94620 79.43182 35723 ft 437 kts 341°
2026-04-23 12:04 14.98888 79.41444 35722 ft 435 kts 340°
2026-04-23 12:04 15.04411 79.38944 35722 ft 434 kts 338°
2026-04-23 12:05 15.09892 79.36468 35723 ft 433 kts 339°
2026-04-23 12:05 15.15437 79.33993 35723 ft 434 kts 338°
2026-04-23 12:06 15.19562 79.32147 35723 ft 434 kts 339°
2026-04-23 12:06 15.27850 79.28474 35724 ft 434 kts 339°
2026-04-23 12:07 15.33353 79.26053 35723 ft 431 kts 339°
2026-04-23 12:07 15.33779 79.25865 35724 ft 431 kts 339°
2026-04-23 12:08 15.38477 79.23823 35750 ft 433 kts 339°
2026-04-23 12:08 15.44003 79.21364 35723 ft 435 kts 338°
2026-04-23 12:09 15.49486 79.18774 35722 ft 433 kts 338°
2026-04-23 12:09 15.54974 79.16276 35723 ft 434 kts 338°
2026-04-23 12:10 15.60492 79.13798 35722 ft 432 kts 338°
2026-04-23 12:10 15.65969 79.11340 35723 ft 432 kts 338°
2026-04-23 12:11 15.71489 79.08866 35723 ft 432 kts 338°
2026-04-23 12:11 15.74211 79.07647 35208 ft 431 kts 338°
2026-04-23 12:11 15.76952 79.06419 34245 ft 427 kts 338°
2026-04-23 12:12 15.79615 79.05225 33555 ft 419 kts 338°
2026-04-23 12:12 15.82301 79.04022 32676 ft 415 kts 338°
2026-04-23 12:12 15.84878 79.02867 32137 ft 402 kts 338°
2026-04-23 12:12 15.87405 79.01735 31672 ft 398 kts 338°
2026-04-23 12:13 15.89968 79.00588 31186 ft 404 kts 338°
2026-04-23 12:13 15.92507 78.99451 30712 ft 400 kts 338°
2026-04-23 12:13 15.94198 78.98692 30399 ft 397 kts 338°
2026-04-23 12:13 15.97554 78.97187 29776 ft 391 kts 338°
2026-04-23 12:14 16.00022 78.96081 29316 ft 386 kts 338°
2026-04-23 12:14 16.02446 78.94994 28854 ft 382 kts 338°
2026-04-23 12:14 16.04862 78.93909 28379 ft 379 kts 338°
2026-04-23 12:14 16.07266 78.92831 27906 ft 375 kts 338°
2026-04-23 12:15 16.09634 78.91767 27436 ft 372 kts 338°
2026-04-23 12:15 16.11706 78.90837 27026 ft 369 kts 338°
2026-04-23 12:15 16.14103 78.89761 26550 ft 365 kts 338°
2026-04-23 12:15 16.16409 78.88724 26092 ft 362 kts 338°
2026-04-23 12:16 16.18731 78.87682 25634 ft 365 kts 338°
2026-04-23 12:16 16.21054 78.86639 25168 ft 364 kts 338°
2026-04-23 12:16 16.23357 78.85603 24709 ft 360 kts 338°
2026-04-23 12:16 16.25634 78.84578 24253 ft 357 kts 338°
2026-04-23 12:17 16.27871 78.83572 23807 ft 353 kts 338°
2026-04-23 12:17 16.30157 78.82544 23536 ft 359 kts 338°
2026-04-23 12:17 16.32475 78.81503 23297 ft 380 kts 338°
2026-04-23 12:17 16.34940 78.80395 23038 ft 387 kts 338°
2026-04-23 12:18 16.37375 78.79296 22780 ft 383 kts 338°
2026-04-23 12:18 16.39776 78.78213 22361 ft 376 kts 338°
2026-04-23 12:18 16.42175 78.77132 21855 ft 371 kts 338°
2026-04-23 12:18 16.44512 78.76079 21339 ft 367 kts 338°
2026-04-23 12:19 16.46815 78.75040 20826 ft 364 kts 338°
2026-04-23 12:19 16.49138 78.73993 20304 ft 360 kts 338°
2026-04-23 12:19 16.51422 78.72963 19791 ft 356 kts 338°
2026-04-23 12:19 16.53674 78.71947 19282 ft 353 kts 338°
2026-04-23 12:20 16.55902 78.70942 18779 ft 350 kts 338°
2026-04-23 12:20 16.58129 78.69937 18278 ft 351 kts 338°
2026-04-23 12:20 16.60372 78.68925 17767 ft 350 kts 338°
2026-04-23 12:20 16.62557 78.67937 17263 ft 347 kts 338°
2026-04-23 12:21 16.64664 78.66983 16781 ft 343 kts 338°
2026-04-23 12:21 16.66192 78.66291 16431 ft 341 kts 338°
2026-04-23 12:21 16.69032 78.65005 15783 ft 336 kts 338°
2026-04-23 12:21 16.71170 78.64036 15292 ft 333 kts 338°
2026-04-23 12:22 16.73283 78.63077 14807 ft 329 kts 338°
2026-04-23 12:22 16.75368 78.62133 14327 ft 326 kts 338°
2026-04-23 12:22 16.77418 78.61203 13854 ft 324 kts 338°
2026-04-23 12:22 16.79510 78.60255 13375 ft 327 kts 338°
2026-04-23 12:23 16.81577 78.59317 12892 ft 324 kts 338°
2026-04-23 12:23 16.83643 78.58379 12411 ft 320 kts 338°
2026-04-23 12:23 16.85678 78.57456 11938 ft 317 kts 338°
2026-04-23 12:23 16.87675 78.56549 11473 ft 314 kts 338°
2026-04-23 12:24 16.89662 78.55647 11009 ft 311 kts 338°
2026-04-23 12:24 16.91633 78.54752 10549 ft 311 kts 338°
2026-04-23 12:24 16.93605 78.53856 10236 ft 304 kts 338°
2026-04-23 12:24 16.95484 78.53002 10098 ft 291 kts 338°
2026-04-23 12:25 16.97313 78.52171 9887 ft 281 kts 338°
2026-04-23 12:25 16.99072 78.51382 9535 ft 272 kts 341°
2026-04-23 12:25 17.00894 78.51000 9189 ft 269 kts 359°
2026-04-23 12:25 17.02793 78.50990 8841 ft 275 kts 360°
2026-04-23 12:26 17.04628 78.50953 8502 ft 272 kts 359°
2026-04-23 12:26 17.05530 78.50930 8339 ft 271 kts 359°
2026-04-23 12:26 17.08323 78.50868 7832 ft 267 kts 359°
2026-04-23 12:26 17.10181 78.50836 7500 ft 271 kts
2026-04-23 12:27 17.11954 78.51211 7249 ft 266 kts 25°
2026-04-23 12:27 17.13433 78.52357 6937 ft 269 kts 50°
2026-04-23 12:27 17.14362 78.54028 6496 ft 271 kts 72°
2026-04-23 12:27 17.14601 78.55961 6038 ft 272 kts 89°
2026-04-23 12:28 17.14664 78.57928 5834 ft 263 kts 83°
2026-04-23 12:28 17.14825 78.59787 5720 ft 253 kts 86°
2026-04-23 12:28 17.14920 78.61646 5231 ft 256 kts 86°
2026-04-23 12:28 17.15054 78.63485 4735 ft 253 kts 80°
2026-04-23 12:29 17.15505 78.65208 4602 ft 234 kts 68°
2026-04-23 12:29 17.16246 78.66685 4596 ft 230 kts 55°
2026-04-23 12:29 17.17309 78.67915 4588 ft 231 kts 34°
2026-04-23 12:29 17.18801 78.68496 4595 ft 231 kts
2026-04-23 12:30 17.20425 78.68487 4607 ft 241 kts 354°
2026-04-23 12:30 17.22002 78.67956 4591 ft 241 kts 327°
2026-04-23 12:30 17.23129 78.66687 4592 ft 242 kts 296°
2026-04-23 12:30 17.23484 78.64990 4587 ft 234 kts 265°
2026-04-23 12:31 17.23127 78.63343 4605 ft 232 kts 259°
2026-04-23 12:31 17.23097 78.61665 4671 ft 231 kts 274°
2026-04-23 12:31 17.23116 78.59973 4584 ft 230 kts 268°
2026-04-23 12:31 17.23087 78.58371 4528 ft 218 kts 270°
2026-04-23 12:32 17.23066 78.56783 4229 ft 216 kts 269°
2026-04-23 12:32 17.23047 78.55237 3961 ft 205 kts 270°
2026-04-23 12:32 17.23178 78.53895 3881 ft 175 kts 273°
2026-04-23 12:32 17.23039 78.52641 3443 ft 172 kts 260°
2026-04-23 12:33 17.22906 78.51447 3099 ft 162 kts 272°
2026-04-23 12:33 17.22965 78.50269 2999 ft 163 kts 270°
2026-04-23 12:33 17.22959 78.49099 2787 ft 155 kts 270°
2026-04-23 12:33 17.22951 78.48247 2568 ft 139 kts 269°
2026-04-23 12:34 17.22947 78.47746 2406 ft 146 kts 271°
2026-04-23 12:34 17.22956 78.46693 2359 ft 140 kts 266°
2026-04-23 12:34 17.22914 78.45659 2177 ft 140 kts 270°
2026-04-23 12:34 17.22901 78.44653 2052 ft 132 kts 269°
2026-04-23 12:35 17.22893 78.43850 2037 ft 83 kts 270°
2026-04-23 12:35 17.22884 78.43425 2022 ft 38 kts 269°
2026-04-23 12:35 17.22885 78.43175 2014 ft 33 kts 274°
2026-04-23 12:35 17.22945 78.42968 2008 ft 28 kts 298°
2026-04-23 12:36 17.23033 78.42814 2000 ft 18 kts 302°
2026-04-23 12:36 17.23092 78.42735 1997 ft 12 kts 340°
2026-04-23 12:36 17.23169 78.42730 1998 ft 9 kts
2026-04-23 12:36 17.23226 78.42731 1999 ft 6 kts
2026-04-23 12:37 17.23265 78.42731 2000 ft 6 kts
2026-04-23 12:37 17.23326 78.42773 2002 ft 12 kts 73°
2026-04-23 12:37 17.23330 78.42846 2005 ft 7 kts 88°
2026-04-23 12:37 17.23331 78.42886 2006 ft 4 kts 89°
2026-04-23 12:38 17.23335 78.42958 2009 ft 9 kts 56°
2026-04-23 12:38 17.23393 78.42968 2008 ft 8 kts 359°
2026-04-23 12:38 17.23418 78.42968 2008 ft 2 kts
2026-04-23 12:38 17.23423 78.42968 2008 ft 0 kts